STARLINK-1948 (46798 NORAD) Tracking and Keplerian Element Data

This shows tracking and keplerian element data for the satellite.

Feedback or suggestion? Click here.




ElementValue
Catalog46798
NameSTARLINK-1948
Epoch Orbit487
Epoch Day328.16667824
Epoch Year2020
RAAN15.568
Inclination53.0559
Eccentricity0.0001328
Argument of Perigee67.8968
Mean Anonmoly128.7832
Mean Motion15.56144936
Decay Rate-0.01091314
L11 46798U 20074BM 20328.16667824 -.01091314 00000-0 -16901-1 0 9991
L22 46798 53.0559 15.5680 0001328 67.8968 128.7832 15.56144936 4870

Live tracking and technical data element details for STARLINK-1948 (NORAD 46798). STARLINK-1948 can be tracked NOW for your location showing map with azimuth and elevation plus other details from your city location.

Track the satellite on the map from your city or location and see movement details for azimuth, elevation, latitude, longitude, range, height, and movement on the map or in text.







IsCatalogInMostPopularTable: catalog: 46798, numindb: 8
Update: records affected: 1



GetName: 46798 STARLINK-1948

Hit Count: updated at: Tue, 24 Nov 2020 12:40:53 GMT